Location: Unspecified
(0.0000°N, 0.0000°E)
Time: 14:21:00
(UTC+00:00)

STARLINK-73 - Visible Passes

Search period start: 15 August 2020 00:00
Search period end: 25 August 2020 00:00
Orbit: 282 x 284 km, 53.0° (Epoch: 15 August)

Date Brightness Start Highest point End Pass type
(mag) Time Alt. Az. Time Alt. Az. Time Alt. Az.
19 Aug 3.3 18:51:45 10° S 18:53:41 25° SE 18:53:41 25° SE visible
20 Aug 1.9 18:46:03 10° SSW 18:48:20 73° SE 18:50:41 10° NE visible
21 Aug 3.7 18:39:03 10° SW 18:41:12 38° NW 18:43:24 10° NNE visible
22 Aug 5.3 18:30:45 10° WSW 18:32:23 18° NW 18:34:04 10° N visible
24 Aug 1.7 05:27:54 10° NW 05:30:02 68° WSW 05:32:06 10° SSE visible
